Year,Month,Day,Hour,Minute,Value (Times are PST for barometer in hPa)
2015,12,10,00,00,998.07
2015,12,10,00,01,997.97
2015,12,10,00,02,997.94
2015,12,10,00,03,997.94
2015,12,10,00,04,997.83
2015,12,10,00,05,997.77
2015,12,10,00,06,997.70
2015,12,10,00,07,997.66
2015,12,10,00,08,997.60
2015,12,10,00,09,997.49
2015,12,10,00,10,997.33
2015,12,10,00,11,997.19
2015,12,10,00,12,997.09
2015,12,10,00,13,997.02
2015,12,10,00,14,996.99
2015,12,10,00,15,996.89
2015,12,10,00,16,996.89
2015,12,10,00,17,996.78
2015,12,10,00,18,996.68
2015,12,10,00,19,996.60
2015,12,10,00,20,996.48
2015,12,10,00,21,996.41
2015,12,10,00,22,996.28
2015,12,10,00,23,996.14
2015,12,10,00,24,996.04
2015,12,10,00,25,995.93
2015,12,10,00,26,995.77
2015,12,10,00,27,995.70
2015,12,10,00,28,995.70
2015,12,10,00,29,995.56
2015,12,10,00,30,995.60
2015,12,10,00,31,995.60
2015,12,10,00,32,995.70
2015,12,10,00,33,995.73
2015,12,10,00,34,995.73
2015,12,10,00,35,995.77
2015,12,10,00,36,995.70
2015,12,10,00,37,995.67
2015,12,10,00,38,995.56
2015,12,10,00,39,995.56
2015,12,10,00,40,995.46
2015,12,10,00,41,995.40
2015,12,10,00,42,995.40
2015,12,10,00,43,995.33
2015,12,10,00,44,995.26
2015,12,10,00,45,995.16
2015,12,10,00,46,995.16
2015,12,10,00,47,995.12
2015,12,10,00,48,995.06
2015,12,10,00,49,994.99
2015,12,10,00,50,994.92
2015,12,10,00,51,994.85
2015,12,10,00,52,994.82
2015,12,10,00,53,994.75
2015,12,10,00,54,994.68
2015,12,10,00,55,994.62
2015,12,10,00,56,994.54
2015,12,10,00,57,994.41
2015,12,10,00,58,994.35
2015,12,10,00,59,994.31
2015,12,10,01,00,994.24
2015,12,10,01,01,994.14
2015,12,10,01,02,994.14
2015,12,10,01,03,994.14
2015,12,10,01,04,994.11
2015,12,10,01,05,994.11
2015,12,10,01,06,994.04
2015,12,10,01,07,994.04
2015,12,10,01,08,994.01
2015,12,10,01,09,993.97
2015,12,10,01,10,993.94
2015,12,10,01,11,993.97
2015,12,10,01,12,993.94
2015,12,10,01,13,993.94
2015,12,10,01,14,993.87
2015,12,10,01,15,993.77
2015,12,10,01,16,993.67
2015,12,10,01,17,993.60
2015,12,10,01,18,993.60
2015,12,10,01,19,993.57
2015,12,10,01,20,993.53
2015,12,10,01,21,993.43
2015,12,10,01,22,993.40
2015,12,10,01,23,993.35
2015,12,10,01,24,993.23
2015,12,10,01,25,993.13
2015,12,10,01,26,993.06
2015,12,10,01,27,992.96
2015,12,10,01,28,992.96
2015,12,10,01,29,992.89
2015,12,10,01,30,992.86
2015,12,10,01,31,992.79
2015,12,10,01,32,992.82
2015,12,10,01,33,992.79
2015,12,10,01,34,992.75
2015,12,10,01,35,992.72
2015,12,10,01,36,992.62
2015,12,10,01,37,992.65
2015,12,10,01,38,992.62
2015,12,10,01,39,992.55
2015,12,10,01,40,992.48
2015,12,10,01,41,992.38
2015,12,10,01,42,992.35
2015,12,10,01,43,992.25
2015,12,10,01,44,992.18
2015,12,10,01,45,992.11
2015,12,10,01,46,992.04
2015,12,10,01,47,992.01
2015,12,10,01,48,991.94
2015,12,10,01,49,991.94
2015,12,10,01,50,991.87
2015,12,10,01,51,991.84
2015,12,10,01,52,991.74
2015,12,10,01,53,991.67
2015,12,10,01,54,991.64
2015,12,10,01,55,991.53
2015,12,10,01,56,991.47
2015,12,10,01,57,991.43
2015,12,10,01,58,991.37
2015,12,10,01,59,991.37
2015,12,10,02,00,991.37
2015,12,10,02,01,991.37
2015,12,10,02,02,991.33
2015,12,10,02,03,991.30
2015,12,10,02,04,991.23
2015,12,10,02,05,991.16
2015,12,10,02,06,991.20
2015,12,10,02,07,991.09
2015,12,10,02,08,990.99
2015,12,10,02,09,990.93
2015,12,10,02,10,990.89
2015,12,10,02,11,990.79
2015,12,10,02,12,990.69
2015,12,10,02,13,990.62
2015,12,10,02,14,990.62
2015,12,10,02,15,990.59
2015,12,10,02,16,990.52
2015,12,10,02,17,990.52
2015,12,10,02,18,990.52
2015,12,10,02,19,990.45
2015,12,10,02,20,990.52
2015,12,10,02,21,990.45
2015,12,10,02,22,990.38
2015,12,10,02,23,990.35
2015,12,10,02,24,990.38
2015,12,10,02,25,990.28
2015,12,10,02,26,990.28
2015,12,10,02,27,990.21
2015,12,10,02,28,990.11
2015,12,10,02,29,990.08
2015,12,10,02,30,990.01
2015,12,10,02,31,990.04
2015,12,10,02,32,990.01
2015,12,10,02,33,990.01
2015,12,10,02,34,989.94
2015,12,10,02,35,989.94
2015,12,10,02,36,989.94
2015,12,10,02,37,989.88
2015,12,10,02,38,989.88
2015,12,10,02,39,989.84
2015,12,10,02,40,989.81
2015,12,10,02,41,989.71
2015,12,10,02,42,989.71
2015,12,10,02,43,989.60
2015,12,10,02,44,989.57
2015,12,10,02,45,989.50
2015,12,10,02,46,989.44
2015,12,10,02,47,989.40
2015,12,10,02,48,989.33
2015,12,10,02,49,989.27
2015,12,10,02,50,989.16
2015,12,10,02,51,989.16
2015,12,10,02,52,989.10
2015,12,10,02,53,989.10
2015,12,10,02,54,989.10
2015,12,10,02,55,989.06
2015,12,10,02,56,989.00
2015,12,10,02,57,989.00
2015,12,10,02,58,988.96
2015,12,10,02,59,988.93
2015,12,10,03,00,988.89
2015,12,10,03,01,988.89
2015,12,10,03,02,988.86
2015,12,10,03,03,988.86
2015,12,10,03,04,988.83
2015,12,10,03,05,988.76
2015,12,10,03,06,988.72
2015,12,10,03,07,988.72
2015,12,10,03,08,988.72
2015,12,10,03,09,988.62
2015,12,10,03,10,988.62
2015,12,10,03,11,988.55
2015,12,10,03,12,988.42
2015,12,10,03,13,988.39
2015,12,10,03,14,988.32
2015,12,10,03,15,988.32
2015,12,10,03,16,988.22
2015,12,10,03,17,988.22
2015,12,10,03,18,988.15
2015,12,10,03,19,988.11
2015,12,10,03,20,988.11
2015,12,10,03,21,988.08
2015,12,10,03,22,988.08
2015,12,10,03,23,988.05
2015,12,10,03,24,988.08
2015,12,10,03,25,988.05
2015,12,10,03,26,987.98
2015,12,10,03,27,987.91
2015,12,10,03,28,987.84
2015,12,10,03,29,987.84
2015,12,10,03,30,987.81
2015,12,10,03,31,987.71
2015,12,10,03,32,987.64
2015,12,10,03,33,987.61
2015,12,10,03,34,987.57
2015,12,10,03,35,987.57
2015,12,10,03,36,987.51
2015,12,10,03,37,987.47
2015,12,10,03,38,987.40
2015,12,10,03,39,987.34
2015,12,10,03,40,987.23
2015,12,10,03,41,987.20
2015,12,10,03,42,987.13
2015,12,10,03,43,987.06
2015,12,10,03,44,987.03
2015,12,10,03,45,986.93
2015,12,10,03,46,986.90
2015,12,10,03,47,986.79
2015,12,10,03,48,986.69
2015,12,10,03,49,986.69
2015,12,10,03,50,986.69
2015,12,10,03,51,986.66
2015,12,10,03,52,986.62
2015,12,10,03,53,986.56
2015,12,10,03,54,986.49
2015,12,10,03,55,986.42
2015,12,10,03,56,986.32
2015,12,10,03,57,986.29
2015,12,10,03,58,986.22
2015,12,10,03,59,986.25
2015,12,10,04,00,986.15
2015,12,10,04,01,986.18
2015,12,10,04,02,986.08
2015,12,10,04,03,986.05
2015,12,10,04,04,986.05
2015,12,10,04,05,986.02
2015,12,10,04,06,985.98
2015,12,10,04,07,985.95
2015,12,10,04,08,985.95
2015,12,10,04,09,986.02
2015,12,10,04,10,985.98
2015,12,10,04,11,985.98
2015,12,10,04,12,985.95
2015,12,10,04,13,986.02
2015,12,10,04,14,986.08
2015,12,10,04,15,986.05
2015,12,10,04,16,986.05
2015,12,10,04,17,986.08
2015,12,10,04,18,986.08
2015,12,10,04,19,986.05
2015,12,10,04,20,985.98
2015,12,10,04,21,986.15
2015,12,10,04,22,986.18
2015,12,10,04,23,985.95
2015,12,10,04,24,985.74
2015,12,10,04,25,985.95
2015,12,10,04,26,986.05
2015,12,10,04,27,986.08
2015,12,10,04,28,986.02
2015,12,10,04,29,985.98
2015,12,10,04,30,985.95
2015,12,10,04,31,985.95
2015,12,10,04,32,985.95
2015,12,10,04,33,986.02
2015,12,10,04,34,985.91
2015,12,10,04,35,985.88
2015,12,10,04,36,985.91
2015,12,10,04,37,985.95
2015,12,10,04,38,985.98
2015,12,10,04,39,986.05
2015,12,10,04,40,985.85
2015,12,10,04,41,985.78
2015,12,10,04,42,985.85
2015,12,10,04,43,985.88
2015,12,10,04,44,985.91
2015,12,10,04,45,985.81
2015,12,10,04,46,985.78
2015,12,10,04,47,985.78
2015,12,10,04,48,985.74
2015,12,10,04,49,985.78
2015,12,10,04,50,985.85
2015,12,10,04,51,985.88
2015,12,10,04,52,985.74
2015,12,10,04,53,985.85
2015,12,10,04,54,985.88
2015,12,10,04,55,985.78
2015,12,10,04,56,985.85
2015,12,10,04,57,985.85
2015,12,10,04,58,985.78
2015,12,10,04,59,985.88
2015,12,10,05,00,985.98
2015,12,10,05,01,985.91
2015,12,10,05,02,985.95
2015,12,10,05,03,985.98
2015,12,10,05,04,986.02
2015,12,10,05,05,985.91
2015,12,10,05,06,985.98
2015,12,10,05,07,985.91
2015,12,10,05,08,985.91
2015,12,10,05,09,985.91
2015,12,10,05,10,985.95
2015,12,10,05,11,985.91
2015,12,10,05,12,985.91
2015,12,10,05,13,985.91
2015,12,10,05,14,985.91
2015,12,10,05,15,985.88
2015,12,10,05,16,985.85
2015,12,10,05,17,985.88
2015,12,10,05,18,985.85
2015,12,10,05,19,985.91
2015,12,10,05,20,985.91
2015,12,10,05,21,985.88
2015,12,10,05,22,985.85
2015,12,10,05,23,985.85
2015,12,10,05,24,985.81
2015,12,10,05,25,985.74
2015,12,10,05,26,985.85
2015,12,10,05,27,985.81
2015,12,10,05,28,985.74
2015,12,10,05,29,985.78
2015,12,10,05,30,985.78
2015,12,10,05,31,985.88
2015,12,10,05,32,985.81
2015,12,10,05,33,985.85
2015,12,10,05,34,985.85
2015,12,10,05,35,985.81
2015,12,10,05,36,985.81
2015,12,10,05,37,985.81
2015,12,10,05,38,985.81
2015,12,10,05,39,985.74
2015,12,10,05,40,985.81
2015,12,10,05,41,985.74
2015,12,10,05,42,985.78
2015,12,10,05,43,985.74
2015,12,10,05,44,985.71
2015,12,10,05,45,985.64
2015,12,10,05,46,985.61
2015,12,10,05,47,985.54
2015,12,10,05,48,985.57
2015,12,10,05,49,985.51
2015,12,10,05,50,985.51
2015,12,10,05,51,985.41
2015,12,10,05,52,985.44
2015,12,10,05,53,985.41
2015,12,10,05,54,985.47
2015,12,10,05,55,985.44
2015,12,10,05,56,985.30
2015,12,10,05,57,985.34
2015,12,10,05,58,985.24
2015,12,10,05,59,985.13
2015,12,10,06,00,985.10
2015,12,10,06,01,985.07
2015,12,10,06,02,985.07
2015,12,10,06,03,985.07
2015,12,10,06,04,985.10
2015,12,10,06,05,984.90
2015,12,10,06,06,984.83
2015,12,10,06,07,984.76
2015,12,10,06,08,984.76
2015,12,10,06,09,984.69
2015,12,10,06,10,984.59
2015,12,10,06,11,984.63
2015,12,10,06,12,984.63
2015,12,10,06,13,984.49
2015,12,10,06,14,984.46
2015,12,10,06,15,984.46
2015,12,10,06,16,984.42
2015,12,10,06,17,984.49
2015,12,10,06,18,984.49
2015,12,10,06,19,984.53
2015,12,10,06,20,984.56
2015,12,10,06,21,984.56
2015,12,10,06,22,984.63
2015,12,10,06,23,984.59
2015,12,10,06,24,984.56
2015,12,10,06,25,984.53
2015,12,10,06,26,984.53
2015,12,10,06,27,984.59
2015,12,10,06,28,984.56
2015,12,10,06,29,984.66
2015,12,10,06,30,984.63
2015,12,10,06,31,984.59
2015,12,10,06,32,984.66
2015,12,10,06,33,984.69
2015,12,10,06,34,984.66
2015,12,10,06,35,984.59
2015,12,10,06,36,984.63
2015,12,10,06,37,984.63
2015,12,10,06,38,984.49
2015,12,10,06,39,984.56
2015,12,10,06,40,984.56
2015,12,10,06,41,984.39
2015,12,10,06,42,984.42
2015,12,10,06,43,984.32
2015,12,10,06,44,984.29
2015,12,10,06,45,984.39
2015,12,10,06,46,984.29
2015,12,10,06,47,984.15
2015,12,10,06,48,984.12
2015,12,10,06,49,984.15
2015,12,10,06,50,984.12
2015,12,10,06,51,984.05
2015,12,10,06,52,984.02
2015,12,10,06,53,984.02
2015,12,10,06,54,983.98
2015,12,10,06,55,983.88
2015,12,10,06,56,983.85
2015,12,10,06,57,983.78
2015,12,10,06,58,983.85
2015,12,10,06,59,983.85
2015,12,10,07,00,983.81
2015,12,10,07,01,983.75
2015,12,10,07,02,983.78
2015,12,10,07,03,983.68
2015,12,10,07,04,983.58
2015,12,10,07,05,983.64
2015,12,10,07,06,983.58
2015,12,10,07,07,983.64
2015,12,10,07,08,983.58
2015,12,10,07,09,983.64
2015,12,10,07,10,983.52
2015,12,10,07,11,983.54
2015,12,10,07,12,983.51
2015,12,10,07,13,983.48
2015,12,10,07,14,983.58
2015,12,10,07,15,983.51
2015,12,10,07,16,983.48
2015,12,10,07,17,983.41
2015,12,10,07,18,983.34
2015,12,10,07,19,983.37
2015,12,10,07,20,983.34
2015,12,10,07,21,983.24
2015,12,10,07,22,983.27
2015,12,10,07,23,983.14
2015,12,10,07,24,983.14
2015,12,10,07,25,983.17
2015,12,10,07,26,983.14
2015,12,10,07,27,983.10
2015,12,10,07,28,983.14
2015,12,10,07,29,983.14
2015,12,10,07,30,983.07
2015,12,10,07,31,983.07
2015,12,10,07,32,983.10
2015,12,10,07,33,983.07
2015,12,10,07,34,983.04
2015,12,10,07,35,983.04
2015,12,10,07,36,982.93
2015,12,10,07,37,982.93
2015,12,10,07,38,982.90
2015,12,10,07,39,982.83
2015,12,10,07,40,982.83
2015,12,10,07,41,982.87
2015,12,10,07,42,982.80
2015,12,10,07,43,982.73
2015,12,10,07,44,982.66
2015,12,10,07,45,982.66
2015,12,10,07,46,982.66
2015,12,10,07,47,982.63
2015,12,10,07,48,982.59
2015,12,10,07,49,982.43
2015,12,10,07,50,982.46
2015,12,10,07,51,982.36
2015,12,10,07,52,982.29
2015,12,10,07,53,982.29
2015,12,10,07,54,982.26
2015,12,10,07,55,982.29
2015,12,10,07,56,982.26
2015,12,10,07,57,982.29
2015,12,10,07,58,982.19
2015,12,10,07,59,982.12
2015,12,10,08,00,981.99
2015,12,10,08,01,982.09
2015,12,10,08,02,982.09
2015,12,10,08,03,981.88
2015,12,10,08,04,981.99
2015,12,10,08,05,981.85
2015,12,10,08,06,981.65
2015,12,10,08,07,981.71
2015,12,10,08,08,981.82
2015,12,10,08,09,981.65
2015,12,10,08,10,981.61
2015,12,10,08,11,981.58
2015,12,10,08,12,981.61
2015,12,10,08,13,981.48
2015,12,10,08,14,981.55
2015,12,10,08,15,981.51
2015,12,10,08,16,981.51
2015,12,10,08,17,981.48
2015,12,10,08,18,981.51
2015,12,10,08,19,981.51
2015,12,10,08,20,981.55
2015,12,10,08,21,981.55
2015,12,10,08,22,981.48
2015,12,10,08,23,981.55
2015,12,10,08,24,981.55
2015,12,10,08,25,981.55
2015,12,10,08,26,981.58
2015,12,10,08,27,981.58
2015,12,10,08,28,981.55
2015,12,10,08,29,981.58
2015,12,10,08,30,981.58
2015,12,10,08,31,981.55
2015,12,10,08,32,981.55
2015,12,10,08,33,981.44
2015,12,10,08,34,981.38
2015,12,10,08,35,981.34
2015,12,10,08,36,981.38
2015,12,10,08,37,981.34
2015,12,10,08,38,981.34
2015,12,10,08,39,981.31
2015,12,10,08,40,981.27
2015,12,10,08,41,981.34
2015,12,10,08,42,981.24
2015,12,10,08,43,981.24
2015,12,10,08,44,981.31
2015,12,10,08,45,981.17
2015,12,10,08,46,981.14
2015,12,10,08,47,981.14
2015,12,10,08,48,981.14
2015,12,10,08,49,981.17
2015,12,10,08,50,981.17
2015,12,10,08,51,981.07
2015,12,10,08,52,981.07
2015,12,10,08,53,981.07
2015,12,10,08,54,981.00
2015,12,10,08,55,980.97
2015,12,10,08,56,980.97
2015,12,10,08,57,980.94
2015,12,10,08,58,981.00
2015,12,10,08,59,980.94
2015,12,10,09,00,980.97
2015,12,10,09,01,980.87
2015,12,10,09,02,980.83
2015,12,10,09,03,980.70
2015,12,10,09,04,980.73
2015,12,10,09,05,980.77
2015,12,10,09,06,980.73
2015,12,10,09,07,980.77
2015,12,10,09,08,980.66
2015,12,10,09,09,980.73
2015,12,10,09,10,980.73
2015,12,10,09,11,980.66
2015,12,10,09,12,980.66
2015,12,10,09,13,980.60
2015,12,10,09,14,980.66
2015,12,10,09,15,980.63
2015,12,10,09,16,980.60
2015,12,10,09,17,980.66
2015,12,10,09,18,980.53
2015,12,10,09,19,980.60
2015,12,10,09,20,980.60
2015,12,10,09,21,980.60
2015,12,10,09,22,980.56
2015,12,10,09,23,980.53
2015,12,10,09,24,980.56
2015,12,10,09,25,980.50
2015,12,10,09,26,980.50
2015,12,10,09,27,980.50
2015,12,10,09,28,980.53
2015,12,10,09,29,980.53
2015,12,10,09,30,980.46
2015,12,10,09,31,980.43
2015,12,10,09,32,980.50
2015,12,10,09,33,980.46
2015,12,10,09,34,980.46
2015,12,10,09,35,980.46
2015,12,10,09,36,980.53
2015,12,10,09,37,980.50
2015,12,10,09,38,980.46
2015,12,10,09,39,980.59
2015,12,10,09,40,980.53
2015,12,10,09,41,980.46
2015,12,10,09,42,980.53
2015,12,10,09,43,980.53
2015,12,10,09,44,980.50
2015,12,10,09,45,980.63
2015,12,10,09,46,980.56
2015,12,10,09,47,980.56
2015,12,10,09,48,980.53
2015,12,10,09,49,980.56
2015,12,10,09,50,980.50
2015,12,10,09,51,980.46
2015,12,10,09,52,980.53
2015,12,10,09,53,980.43
2015,12,10,09,54,980.50
2015,12,10,09,55,980.53
2015,12,10,09,56,980.50
2015,12,10,09,57,980.53
2015,12,10,09,58,980.53
2015,12,10,09,59,980.56
2015,12,10,10,00,980.56
2015,12,10,10,01,980.63
2015,12,10,10,02,980.56
2015,12,10,10,03,980.53
2015,12,10,10,04,980.60
2015,12,10,10,05,980.53
2015,12,10,10,06,980.56
2015,12,10,10,07,980.50
2015,12,10,10,08,980.62
2015,12,10,10,09,980.66
2015,12,10,10,10,980.60
2015,12,10,10,11,980.53
2015,12,10,10,12,980.56
2015,12,10,10,13,980.53
2015,12,10,10,14,980.53
2015,12,10,10,15,980.50
2015,12,10,10,16,980.50
2015,12,10,10,17,980.50
2015,12,10,10,18,980.46
2015,12,10,10,19,980.50
2015,12,10,10,20,980.50
2015,12,10,10,21,980.43
2015,12,10,10,22,980.46
2015,12,10,10,23,980.43
2015,12,10,10,24,980.39
2015,12,10,10,25,980.50
2015,12,10,10,26,980.43
2015,12,10,10,27,980.43
2015,12,10,10,28,980.39
2015,12,10,10,29,980.39
2015,12,10,10,30,980.33
2015,12,10,10,31,980.33
2015,12,10,10,32,980.33
2015,12,10,10,33,980.36
2015,12,10,10,34,980.29
2015,12,10,10,35,980.36
2015,12,10,10,36,980.26
2015,12,10,10,37,980.26
2015,12,10,10,38,980.29
2015,12,10,10,39,980.33
2015,12,10,10,40,980.26
2015,12,10,10,41,980.29
2015,12,10,10,42,980.22
2015,12,10,10,43,980.33
2015,12,10,10,44,980.22
2015,12,10,10,45,980.26
2015,12,10,10,46,980.16
2015,12,10,10,47,980.19
2015,12,10,10,48,980.19
2015,12,10,10,49,980.22
2015,12,10,10,50,980.19
2015,12,10,10,51,980.26
2015,12,10,10,52,980.19
2015,12,10,10,53,980.29
2015,12,10,10,54,980.22
2015,12,10,10,55,980.22
2015,12,10,10,56,980.26
2015,12,10,10,57,980.33
2015,12,10,10,58,980.22
2015,12,10,10,59,980.12
2015,12,10,11,00,980.06
2015,12,10,11,01,980.02
2015,12,10,11,02,980.06
2015,12,10,11,03,979.99
2015,12,10,11,04,980.02
2015,12,10,11,05,979.86
2015,12,10,11,06,979.92
2015,12,10,11,07,979.95
2015,12,10,11,08,979.82
2015,12,10,11,09,979.92
2015,12,10,11,10,979.82
2015,12,10,11,11,979.82
2015,12,10,11,12,979.85
2015,12,10,11,13,979.75
2015,12,10,11,14,979.75
2015,12,10,11,15,979.75
2015,12,10,11,16,979.82
2015,12,10,11,17,979.78
2015,12,10,11,18,979.78
2015,12,10,11,19,979.72
2015,12,10,11,20,979.78
2015,12,10,11,21,979.75
2015,12,10,11,22,979.82
2015,12,10,11,23,979.82
2015,12,10,11,24,979.78
2015,12,10,11,25,979.75
2015,12,10,11,26,979.75
2015,12,10,11,27,979.75
2015,12,10,11,28,979.75
2015,12,10,11,29,979.65
2015,12,10,11,30,979.72
2015,12,10,11,31,979.55
2015,12,10,11,32,979.61
2015,12,10,11,33,979.68
2015,12,10,11,34,979.68
2015,12,10,11,35,979.65
2015,12,10,11,36,979.72
2015,12,10,11,37,979.58
2015,12,10,11,38,979.65
2015,12,10,11,39,979.61
2015,12,10,11,40,979.61
2015,12,10,11,41,979.72
2015,12,10,11,42,979.65
2015,12,10,11,43,979.72
2015,12,10,11,44,979.55
2015,12,10,11,45,979.72
2015,12,10,11,46,979.65
2015,12,10,11,47,979.61
2015,12,10,11,48,979.68
2015,12,10,11,49,979.78
2015,12,10,11,50,979.68
2015,12,10,11,51,979.75
2015,12,10,11,52,979.72
2015,12,10,11,53,979.68
2015,12,10,11,54,979.72
2015,12,10,11,55,979.68
2015,12,10,11,56,979.68
2015,12,10,11,57,979.78
2015,12,10,11,58,979.75
2015,12,10,11,59,979.65
2015,12,10,12,00,979.78
2015,12,10,12,01,979.75
2015,12,10,12,02,979.75
2015,12,10,12,03,979.65
2015,12,10,12,04,979.75
2015,12,10,12,05,979.78
2015,12,10,12,06,979.75
2015,12,10,12,07,979.91
2015,12,10,12,08,979.78
2015,12,10,12,09,979.89
2015,12,10,12,10,979.85
2015,12,10,12,11,979.89
2015,12,10,12,12,979.85
2015,12,10,12,13,979.85
2015,12,10,12,14,979.78
2015,12,10,12,15,979.85
2015,12,10,12,16,979.92
2015,12,10,12,17,979.85
2015,12,10,12,18,979.82
2015,12,10,12,19,979.68
2015,12,10,12,20,979.84
2015,12,10,12,21,979.85
2015,12,10,12,22,979.82
2015,12,10,12,23,979.68
2015,12,10,12,24,979.78
2015,12,10,12,25,979.68
2015,12,10,12,26,979.82
2015,12,10,12,27,979.82
2015,12,10,12,28,979.78
2015,12,10,12,29,979.78
2015,12,10,12,30,979.68
2015,12,10,12,31,979.61
2015,12,10,12,32,979.77
2015,12,10,12,33,979.72
2015,12,10,12,34,979.72
2015,12,10,12,35,979.75
2015,12,10,12,36,979.72
2015,12,10,12,37,979.75
2015,12,10,12,38,979.78
2015,12,10,12,39,979.78
2015,12,10,12,40,979.78
2015,12,10,12,41,979.85
2015,12,10,12,42,979.75
2015,12,10,12,43,979.75
2015,12,10,12,44,979.82
2015,12,10,12,45,979.82
2015,12,10,12,46,979.82
2015,12,10,12,47,979.65
2015,12,10,12,48,979.75
2015,12,10,12,49,979.68
2015,12,10,12,50,979.72
2015,12,10,12,51,979.61
2015,12,10,12,52,979.72
2015,12,10,12,53,979.78
2015,12,10,12,54,979.91
2015,12,10,12,55,979.92
2015,12,10,12,56,979.99
2015,12,10,12,57,979.95
2015,12,10,12,58,980.02
2015,12,10,12,59,980.09
2015,12,10,13,00,980.06
2015,12,10,13,01,980.02
2015,12,10,13,02,980.02
2015,12,10,13,03,980.09
2015,12,10,13,04,980.12
2015,12,10,13,05,980.12
2015,12,10,13,06,980.16
2015,12,10,13,07,980.12
2015,12,10,13,08,980.06
2015,12,10,13,09,980.28
2015,12,10,13,10,980.22
2015,12,10,13,11,980.33
2015,12,10,13,12,980.33
2015,12,10,13,13,980.33
2015,12,10,13,14,980.36
2015,12,10,13,15,980.39
2015,12,10,13,16,980.43
2015,12,10,13,17,980.39
2015,12,10,13,18,980.43
2015,12,10,13,19,980.50
2015,12,10,13,20,980.53
2015,12,10,13,21,980.60
2015,12,10,13,22,980.56
2015,12,10,13,23,980.60
2015,12,10,13,24,980.63
2015,12,10,13,25,980.63
2015,12,10,13,26,980.66
2015,12,10,13,27,980.66
2015,12,10,13,28,980.63
2015,12,10,13,29,980.66
2015,12,10,13,30,980.66
2015,12,10,13,31,980.73
2015,12,10,13,32,980.70
2015,12,10,13,33,980.73
2015,12,10,13,34,980.73
2015,12,10,13,35,980.80
2015,12,10,13,36,980.94
2015,12,10,13,37,980.87
2015,12,10,13,38,980.90
2015,12,10,13,39,980.90
2015,12,10,13,40,980.94
2015,12,10,13,41,980.90
2015,12,10,13,42,980.90
2015,12,10,13,43,980.97
2015,12,10,13,44,980.97
2015,12,10,13,45,981.00
2015,12,10,13,46,980.97
2015,12,10,13,47,981.04
2015,12,10,13,48,981.14
2015,12,10,13,49,981.14
2015,12,10,13,50,981.14
2015,12,10,13,51,981.01
2015,12,10,13,52,980.90
2015,12,10,13,53,981.13
2015,12,10,13,54,981.10
2015,12,10,13,55,981.04
2015,12,10,13,56,981.04
2015,12,10,13,57,981.04
2015,12,10,13,58,981.04
2015,12,10,13,59,981.04
2015,12,10,14,00,981.00
2015,12,10,14,01,981.00
2015,12,10,14,02,981.07
2015,12,10,14,03,981.10
2015,12,10,14,04,981.14
2015,12,10,14,05,981.14
2015,12,10,14,06,981.21
2015,12,10,14,07,981.10
2015,12,10,14,08,981.07
2015,12,10,14,09,980.95
2015,12,10,14,10,980.90
2015,12,10,14,11,980.83
2015,12,10,14,12,980.77
2015,12,10,14,13,980.90
2015,12,10,14,14,981.06
2015,12,10,14,15,981.17
2015,12,10,14,16,981.07
2015,12,10,14,17,981.24
2015,12,10,14,18,981.38
2015,12,10,14,19,981.31
2015,12,10,14,20,981.38
2015,12,10,14,21,981.38
2015,12,10,14,22,981.44
2015,12,10,14,23,981.55
2015,12,10,14,24,981.67
2015,12,10,14,25,981.71
2015,12,10,14,26,981.75
2015,12,10,14,27,981.68
2015,12,10,14,28,981.71
2015,12,10,14,29,981.71
2015,12,10,14,30,981.71
2015,12,10,14,31,981.68
2015,12,10,14,32,981.75
2015,12,10,14,33,981.68
2015,12,10,14,34,981.48
2015,12,10,14,35,981.38
2015,12,10,14,36,981.31
2015,12,10,14,37,981.38
2015,12,10,14,38,981.41
2015,12,10,14,39,981.51
2015,12,10,14,40,981.74
2015,12,10,14,41,981.61
2015,12,10,14,42,981.65
2015,12,10,14,43,981.71
2015,12,10,14,44,981.82
2015,12,10,14,45,981.82
2015,12,10,14,46,981.92
2015,12,10,14,47,981.92
2015,12,10,14,48,981.95
2015,12,10,14,49,981.92
2015,12,10,14,50,981.88
2015,12,10,14,51,981.82
2015,12,10,14,52,981.68
2015,12,10,14,53,981.65
2015,12,10,14,54,981.49
2015,12,10,14,55,981.58
2015,12,10,14,56,981.71
2015,12,10,14,57,981.82
2015,12,10,14,58,981.85
2015,12,10,14,59,981.88
2015,12,10,15,00,981.88
2015,12,10,15,01,981.82
2015,12,10,15,02,981.78
2015,12,10,15,03,981.85
2015,12,10,15,04,981.85
2015,12,10,15,05,981.75
2015,12,10,15,06,981.85
2015,12,10,15,07,981.92
2015,12,10,15,08,981.99
2015,12,10,15,09,981.92
2015,12,10,15,10,981.92
2015,12,10,15,11,982.09
2015,12,10,15,12,982.15
2015,12,10,15,13,982.09
2015,12,10,15,14,982.09
2015,12,10,15,15,982.15
2015,12,10,15,16,982.22
2015,12,10,15,17,982.26
2015,12,10,15,18,982.22
2015,12,10,15,19,982.26
2015,12,10,15,20,982.43
2015,12,10,15,21,982.49
2015,12,10,15,22,982.49
2015,12,10,15,23,982.62
2015,12,10,15,24,982.53
2015,12,10,15,25,982.53
2015,12,10,15,26,982.30
2015,12,10,15,27,982.42
2015,12,10,15,28,982.46
2015,12,10,15,29,982.53
2015,12,10,15,30,982.72
2015,12,10,15,31,982.70
2015,12,10,15,32,982.54
2015,12,10,15,33,982.49
2015,12,10,15,34,982.66
2015,12,10,15,35,982.73
2015,12,10,15,36,982.66
2015,12,10,15,37,982.70
2015,12,10,15,38,982.70
2015,12,10,15,39,982.80
2015,12,10,15,40,982.80
2015,12,10,15,41,982.87
2015,12,10,15,42,982.97
2015,12,10,15,43,983.00
2015,12,10,15,44,983.00
2015,12,10,15,45,983.10
2015,12,10,15,46,983.10
2015,12,10,15,47,983.10
2015,12,10,15,48,983.10
2015,12,10,15,49,983.07
2015,12,10,15,50,983.10
2015,12,10,15,51,983.00
2015,12,10,15,52,983.07
2015,12,10,15,53,983.10
2015,12,10,15,54,983.23
2015,12,10,15,55,983.31
2015,12,10,15,56,983.34
2015,12,10,15,57,983.34
2015,12,10,15,58,983.41
2015,12,10,15,59,983.58
2015,12,10,16,00,983.58
2015,12,10,16,01,983.83
2015,12,10,16,02,983.72
2015,12,10,16,03,983.75
2015,12,10,16,04,983.68
2015,12,10,16,05,983.75
2015,12,10,16,06,983.81
2015,12,10,16,07,983.88
2015,12,10,16,08,983.88
2015,12,10,16,09,983.95
2015,12,10,16,10,983.98
2015,12,10,16,11,983.98
2015,12,10,16,12,984.08
2015,12,10,16,13,984.02
2015,12,10,16,14,984.05
2015,12,10,16,15,984.08
2015,12,10,16,16,984.15
2015,12,10,16,17,984.12
2015,12,10,16,18,984.19
2015,12,10,16,19,984.19
2015,12,10,16,20,984.25
2015,12,10,16,21,984.36
2015,12,10,16,22,984.42
2015,12,10,16,23,984.46
2015,12,10,16,24,984.53
2015,12,10,16,25,984.66
2015,12,10,16,26,984.79
2015,12,10,16,27,984.80
2015,12,10,16,28,984.86
2015,12,10,16,29,984.90
2015,12,10,16,30,984.97
2015,12,10,16,31,985.07
2015,12,10,16,32,985.00
2015,12,10,16,33,985.10
2015,12,10,16,34,985.07
2015,12,10,16,35,985.10
2015,12,10,16,36,985.20